Find Starlink 31985

NORAD ID: 60036 Int'l Des: 2024-111 Owner: SPXS Country: US Constellation: starlink operational
LEOCIRCULAR

当前视图

正在加载3D地球...

About Starlink 31985

Starlink 31985 (NORAD 60036) is a starlink constellation satellite (v2 mini) launched Jun 8, 2024 by SPXS of US. It operates in LEO, CIRCULAR orbit with a mass of 730.00 kg.

关于 Starlink 31985

正在加载描述...

即将过境

Passes for default location (London). Set your location on the main map for personalized predictions.

高度历史

Loading altitude history...

两行轨道根数

1 60036U 24111W 26171.37504588 -.00001240 00000-0 -29734-4 0 9999
2 60036 53.1619 318.7586 0001691 94.8577 265.2617 15.30190794114696
Epoch: Jun 20, 2026 • Age: 22 hours

当前状态

高度 487.7 km
速度 7.62 km/s
星下点 -36.03°S, 88.87°W
发射日期 Jun 8, 2024
运行时间 2 years
类型 internet

技术详情

分类 Payload
质量 730.00 kg
干质量 700.00 kg
总质量 730.00 kg
长度 0.30 m
直径 4.10 m
跨度 29.00 m
形状 Box + pan
制造商 SPXS
平台类型 Starlink V2M
阶段状态 In Orbit
所有者/国家 SPXS/US

Most Searched